Regional Weather Roundup
Issued by NWS Cleveland, OH

Home | Current Version | Previous Version | Graphics & Text | Print | Product List | Glossary On
Versions: 1 2 3 4 5 6 7 8 9 10 11 12 13 14 15 16 17 18 19 20 21 22 23 24 25 26 27 28 29 30 31 32 33 34 35 36 37 38 39 40 41 42 43 44 45 46 47 48 49 50
000
ASUS41 KCLE 202002
RWRCLE
OHIO REGIONAL WEATHER ROUNDUP
NATIONAL WEATHER SERVICE CLEVELAND, OH
400 PM EDT MON OCT 20 2014

NOTE: "FAIR" INDICATES FEW OR NO CLOUDS BELOW 12,000 FEET WITH NO
SIGNIFICANT WEATHER AND/OR OBSTRUCTIONS TO VISIBILITY.

OHZ001>008-015>018-024>027-034-035-043-044-202100-
   NORTHWEST OHIO

CITY           SKY/WX    TMP DP  RH WIND       PRES   REMARKS
DEFIANCE       CLOUDY    55  50  83 SW7       29.82R
FINDLAY        LGT RAIN  53  50  89 S13       29.82F FOG
TOLEDO EXPRESS CLOUDY    53  50  89 W8        29.82R
TOLEDO EXEC    CLOUDY    54  49  83 W14       29.83R
LIMA           CLOUDY    55  52  89 SW7       29.83F
$$

OHZ009>014-019>023-028>033-038-089-202100-
   NORTHEAST OHIO

CITY           SKY/WX    TMP DP  RH WIND       PRES   REMARKS
CLE-HOPKINS    CLOUDY    56  45  66 S9        29.84F
CLE-LAKEFRONT  CLOUDY    58  45  62 S9        29.81F
CUY CO. ARPT   CLOUDY    59  48  67 S14       29.83S
LORAIN-ELYRIA  CLOUDY    57  48  72 S9        29.82F
ASHTABULA      CLOUDY    55  44  66 S13G21    29.83F
AKRON-CANTON   CLOUDY    56  44  64 S13G20    29.85F
WOOSTER        CLOUDY    59  46  62 S14       29.84F
MANSFIELD      LGT RAIN  54  50  86 S17       29.83F
YOUNGSTOWN     LGT RAIN  54  43  66 S9        29.85F
$$

OHZ042-051>053-060>062-070>072-077>081-202100-
  SOUTHWEST OHIO

CITY           SKY/WX    TMP DP  RH WIND       PRES   REMARKS
CINC-COVINGTON LGT RAIN  62  47  57 SW13      29.87R
CINC-LUNKEN    CLOUDY    62  49  62 SW10      29.87S
HAMILTON       CLOUDY    60  55  83 SW3       29.87R
DAYTON         CLOUDY    56  53  90 SW9       29.86S
WRIGHT-PAT AFB LGT RAIN  55  54  94 SW6       29.86R
DAYTON GENERAL CLOUDY    56  52  86 SW6       29.86R
WILMINGTON     RAIN      57  47  69 SW14      29.86S
$$

OHZ036-037-039>041-045>050-054>059-063>069-073>076-082>088-202100-
  CENTRAL AND SOUTHEAST OHIO

CITY           SKY/WX    TMP DP  RH WIND       PRES   REMARKS
COLUMBUS       LGT RAIN  59  44  57 SW12      29.86S
OSU AIRPORT    LGT RAIN  57  48  72 SW5       29.85F
BOLTON FIELD   CLOUDY    61  46  59 S12       29.86F
RICKENBACK AFB NOT AVBL
NEWARK         CLOUDY    60  42  51 S14       29.86S
MARION         LGT RAIN  54  50  86 SW7       29.85F
LANCASTER      CLOUDY    61  42  49 SW10      29.88R
ZANESVILLE     CLOUDY    58  42  55 S9        29.88F
NEW PHILLY     CLOUDY    58  42  55 VRB5      29.88S
$$


USA.gov is the U.S. government's official web portal to all federal, state and local government web resources and services.